STARLINK-4410 (53204 NORAD) Tracking and Keplerian Element Data

This shows tracking and keplerian element data for the satellite.

Feedback or suggestion? Click here.




ElementValue
Catalog53204
NameSTARLINK-4410
Epoch Orbit1072
Epoch Day270.16787118
Epoch Year2022
RAAN329.9917
Inclination97.6549
Eccentricity0.0001948
Argument of Perigee129.0292
Mean Anonmoly231.1105
Mean Motion15.01257659
Decay Rate-1.227E-05
L11 53204U 22084R 22270.16787118 -.00001227 00000+0 -90957-4 0 9999
L22 53204 97.6549 329.9917 0001948 129.0292 231.1105 15.01257659 10727

Live tracking and technical data element details for STARLINK-4410 (NORAD 53204). STARLINK-4410 can be tracked NOW for your location showing map with azimuth and elevation plus other details from your city location.

Track the satellite on the map from your city or location and see movement details for azimuth, elevation, latitude, longitude, range, height, and movement on the map or in text.







IsCatalogInMostPopularTable: catalog: 53204, numindb: 3
Update: records affected: 1



GetName: 53204 STARLINK-4410

Hit Count: updated at: Fri, 30 Sep 2022 02:53:36 GMT